Weather History for Alexandria, LA

Change the Weather History Date:

Wednesday, August 21, 2013

  Actual Average Record
Temperature  
Mean Temperature 83 °F 82 °F  
Max Temperature 92 °F 94 °F 104 °F (1999)
Min Temperature 73 °F 72 °F 57 °F (1940)
Cooling Degree Days 18 17  
Month to date cooling degree days 387 377  
Year to date cooling degree days 1788 1823  
Since 1 June cooling degree days 1395 1369  
Growing Degree Days 32 (Base 50)    
Moisture  
Dew Point 73 °F    
Average Humidity 78    
Maximum Humidity 100    
Minimum Humidity 56    
Precipitation  
Precipitation 0.08 in 0.13 in 1.45 in (1978)
Month to date precipitation 4.67 2.31  
Year to date precipitation 37.58 35.04  
Sea Level Pressure  
Sea Level Pressure 30.06 in    
Wind  
Wind Speed 4 mph (ESE)    
Max Wind Speed 21 mph    
Max Gust Speed 25 mph    
Visibility 9 miles    
Events Rain , Thunderstorm    
T = Trace of Precipitation, MM = Missing Value Source: NWS Daily Summary

Daily Weather History Graph

Daily Weather History Graph

Search for Another Location

Airport:

Trip Planner

Search our weather history database for the weather conditions in past years. The results will help you decide how hot, cold, wet, or windy it might be!

Date:

Astronomy

Aug. 21, 2013 Rise Set
Actual Time 6:39 AM CDT 7:46 PM CDT
Civil Twilight 6:14 AM CDT 8:11 PM CDT
Nautical Twilight 5:44 AM CDT 8:41 PM CDT
Astronomical Twilight 5:13 AM CDT 9:12 PM CDT
Moon 8:04 PM CDT (8/21) 7:14 AM CDT (8/21)
Length of Visible Light 13h 57m
Length of Day
13h 06m
Waxing Gibbous, 99% of the Moon is Illuminated
Aug 21
Waxing Gibbous
Aug 28
Last Quarter
Sep 5
New
Sep 12
First Quarter
Sep 19
Full

Hourly Weather History & Observations

Time (CDT) Temp. Heat Index Dew Point Humidity Pressure Visibility Wind Dir Wind Speed Gust Speed Precip Events Conditions
12:53 AM 73.0 °F - 73.0 °F 100% 30.05 in 9.0 mi SE 4.6 mph - N/A   Clear
1:53 AM 73.0 °F - 73.0 °F 100% 30.04 in 8.0 mi Calm Calm - N/A   Clear
2:53 AM 73.0 °F - 73.0 °F 100% 30.05 in 9.0 mi SE 3.5 mph - N/A   Clear
3:53 AM 73.9 °F - 73.0 °F 97% 30.04 in 9.0 mi Calm Calm - N/A   Clear
4:53 AM 73.9 °F - 73.0 °F 97% 30.04 in 9.0 mi Calm Calm - N/A   Clear
5:53 AM 73.9 °F - 73.0 °F 97% 30.06 in 7.0 mi Calm Calm - N/A   Clear
6:53 AM 73.0 °F - 72.0 °F 96% 30.08 in 8.0 mi NNE 3.5 mph - N/A   Clear
7:53 AM 73.9 °F - 73.0 °F 97% 30.09 in 9.0 mi NNE 3.5 mph - N/A   Clear
8:53 AM 77.0 °F - 73.0 °F 88% 30.11 in 10.0 mi NE 3.5 mph - N/A   Clear
9:53 AM 79.0 °F - 75.0 °F 88% 30.12 in 10.0 mi ESE 3.5 mph - N/A   Clear
10:53 AM 84.0 °F 91.9 °F 75.0 °F 74% 30.12 in 10.0 mi East 4.6 mph - 0.01 in   Scattered Clouds
11:53 AM 84.9 °F 93.3 °F 75.0 °F 72% 30.12 in 10.0 mi Variable 3.5 mph - N/A   Partly Cloudy
12:53 PM 88.0 °F 97.5 °F 75.0 °F 65% 30.09 in 10.0 mi Variable 3.5 mph - N/A   Clear
1:53 PM 89.1 °F 97.0 °F 73.0 °F 59% 30.07 in 10.0 mi Calm Calm - N/A   Partly Cloudy
2:53 PM 91.9 °F 101.3 °F 73.9 °F 55% 30.05 in 10.0 mi Variable 6.9 mph - N/A   Partly Cloudy
3:53 PM 91.0 °F 98.2 °F 72.0 °F 53% 30.02 in 10.0 mi East 6.9 mph - N/A Thunderstorm Clear
4:12 PM 91.4 °F 100.1 °F 73.4 °F 55% 30.02 in 10.0 mi East 5.8 mph - N/A   Clear
4:23 PM 91.4 °F 100.1 °F 73.4 °F 55% 30.02 in 10.0 mi East 11.5 mph - N/A Thunderstorm Scattered Clouds
4:43 PM 84.2 °F 89.6 °F 71.6 °F 66% 30.03 in 10.0 mi ESE 20.7 mph 25.3 mph N/A Thunderstorm Thunderstorm
4:53 PM 80.1 °F 84.5 °F 73.9 °F 81% 30.03 in 3.0 mi SE 15.0 mph - 0.05 in Rain , Thunderstorm Heavy Rain
5:26 PM 80.6 °F 84.6 °F 71.6 °F 74% 30.02 in 10.0 mi ESE 4.6 mph - 0.02 in   Scattered Clouds
5:53 PM 81.0 °F 84.9 °F 71.1 °F 72% 30.04 in 10.0 mi East 4.6 mph - 0.02 in   Clear
6:53 PM 84.0 °F 89.6 °F 72.0 °F 67% 30.04 in 10.0 mi ESE 6.9 mph - N/A   Clear
7:53 PM 79.0 °F - 72.0 °F 79% 30.03 in 10.0 mi SSE 5.8 mph - N/A   Clear
8:53 PM 78.1 °F - 72.0 °F 81% 30.04 in 10.0 mi ESE 6.9 mph - N/A   Clear
9:53 PM 75.9 °F - 72.0 °F 87% 30.06 in 10.0 mi Calm Calm - N/A   Clear
10:53 PM 75.9 °F - 73.0 °F 91% 30.08 in 10.0 mi Calm Calm - N/A   Clear
11:53 PM 75.0 °F - 72.0 °F 90% 30.09 in 10.0 mi Calm Calm - N/A   Clear